This demonstration page uses our WeatherBlox Daily Observations layout. Learn more.

Left ArrowRight Arrow

Hourly Observations for January 9, 2019

Temp ( °F °C ) Dew Point ( °F °C ) Humidity (%) Winds ( mph kmh ) Pressure ( in mb ) Visibility ( mi km ) Precip ( " mm )
12:51 am 00:51 Clear 46 7.8 34 1.1 63 63 E 8 13 30.24 1024 10 16 N/A
1:51 am 01:51 Clear 45 7.2 35 1.7 68 68 ESE 9 15 30.24 1024 10 16 N/A
2:51 am 02:51 Clear 44 6.7 35 1.7 71 71 ESE 10 17 30.24 1024 10 16 N/A
3:51 am 03:51 Clear 45 7.2 34 1.1 66 66 SE 13 20 30.24 1024 10 16 N/A
4:51 am 04:51 Clear 45 7.2 33 0.6 63 63 E 14 22 30.23 1024 10 16 N/A
5:51 am 05:51 Clear 45 7.2 33 0.6 63 63 ESE 14 22 30.24 1024 10 16 N/A
6:51 am 06:51 Clear 44 6.7 33 0.6 65 65 ESE 10 17 30.27 1025 10 16 N/A
7:51 am 07:51 Sunny 45 7.2 33 0.6 63 63 E 10 17 30.28 1025 10 16 N/A
8:51 am 08:51 Mostly Cloudy 47 8.3 33 0.6 59 59 SE 13 20 30.29 1026 10 16 N/A
9:51 am 09:51 Partly Cloudy 49 9.4 34 1.1 56 56 SE 12 19 30.32 1027 10 16 N/A
10:51 am 10:51 Cloudy 53 11.7 35 1.7 51 51 SE 10 17 30.30 1026 10 16 N/A
11:51 am 11:51 Partly Cloudy 56 13.3 33 0.6 42 42 ESE 10 17 30.25 1025 10 16 N/A
12:51 pm 12:51 Mostly Cloudy 59 15 32 undefined 36 36 E 9 15 30.19 1023 10 16 N/A
1:51 pm 13:51 Cloudy 58 14.4 32 undefined 38 38 ESE 7 11 30.17 1022 10 16 N/A
2:51 pm 14:51 Cloudy 59 15 31 -0.6 35 35 S 7 11 30.17 1022 10 16 N/A
3:51 pm 15:51 Cloudy 58 14.4 32 undefined 38 38 SSE 9 15 30.15 1021 10 16 N/A
4:51 pm 16:51 Partly Cloudy 56 13.3 34 1.1 44 44 SSW 6 9 30.17 1022 10 16 N/A
5:51 pm 17:51 Mostly Cloudy 54 12.2 35 1.7 49 49 ESE 9 15 30.16 1021 10 16 N/A
6:51 pm 18:51 Mostly Cloudy 53 11.7 37 2.8 55 55 E 12 19 30.15 1021 10 16 N/A
7:51 pm 19:51 Cloudy with Light Rain 53 11.7 37 2.8 55 55 E 8 13 30.17 1022 10 16 N/A
8:51 pm 20:51 Cloudy with Rain 49 9.4 42 5.6 77 77 ESE 12 19 30.19 1023 7 11 0.06 1.52
9:51 pm 21:51 Cloudy 48 8.9 43 6.1 83 83 SE 10 17 30.19 1022 10 16 0.02 0.51
10:51 pm 22:51 Clear 48 8.9 43 6.1 83 83 SE 10 17 30.18 1022 10 16 N/A
11:51 pm 23:51 Clear 46 7.8 41 5 83 83 ESE 8 13 30.16 1021 10 16 N/A

Powered by AerisWeather